Radiation Dose at Monitoring Post of Fukushima Daini Nuclear Power Station
Date,Time,MP-1(microSv/h),MP-2(microSv/h),MP-3(microSv/h),MP-4(microSv/h),MP-5(microSv/h),MP-6(microSv/h),MP-7(microSv/h),Wind Direction,Wind Velocity(m/s),Rain
2016/01/21,00:00,0.457,0.266,0.479,0.436,0.415,0.218,0.190,west,5.0,No
2016/01/21,00:10,0.457,0.267,0.479,0.437,0.414,0.220,0.190,west,6.0,No
2016/01/21,00:20,0.458,0.267,0.480,0.436,0.417,0.219,0.190,west-northwest,5.4,Yes
2016/01/21,00:30,0.456,0.268,0.479,0.437,0.418,0.220,0.190,west-northwest,4.9,Yes
2016/01/21,00:40,0.457,0.267,0.478,0.435,0.415,0.219,0.191,northwest,4.9,Yes
2016/01/21,00:50,0.458,0.269,0.479,0.438,0.416,0.219,0.191,north-northwest,3.2,Yes
2016/01/21,01:00,0.458,0.269,0.481,0.438,0.417,0.219,0.190,north-northwest,3.4,No
2016/01/21,01:10,0.459,0.268,0.481,0.437,0.417,0.219,0.191,northwest,3.0,No
2016/01/21,01:20,0.457,0.269,0.480,0.437,0.416,0.219,0.192,north-northwest,1.6,No
2016/01/21,01:30,0.456,0.268,0.480,0.437,0.418,0.220,0.190,-,CALM,No
2016/01/21,01:40,0.457,0.267,0.481,0.437,0.417,0.220,0.190,north-northwest,1.0,No
2016/01/21,01:50,0.456,0.268,0.480,0.436,0.417,0.219,0.190,-,CALM,No
2016/01/21,02:00,0.456,0.269,0.480,0.436,0.417,0.219,0.191,-,CALM,No
2016/01/21,02:10,0.456,0.267,0.481,0.436,0.418,0.218,0.190,-,CALM,No
2016/01/21,02:20,0.456,0.267,0.480,0.437,0.415,0.219,0.191,northeast,0.7,No
2016/01/21,02:30,0.456,0.267,0.481,0.436,0.415,0.219,0.191,north-northeast,1.3,No
2016/01/21,02:40,0.454,0.267,0.480,0.437,0.416,0.218,0.190,north,1.9,No
2016/01/21,02:50,0.456,0.267,0.478,0.435,0.417,0.218,0.190,west-northwest,1.2,No
2016/01/21,03:00,0.454,0.268,0.480,0.436,0.416,0.219,0.190,west-northwest,1.7,No
2016/01/21,03:10,0.454,0.268,0.478,0.435,0.416,0.218,0.190,northwest,1.1,No
2016/01/21,03:20,0.455,0.267,0.481,0.436,0.415,0.220,0.190,northwest,1.1,No
2016/01/21,03:30,0.455,0.267,0.479,0.436,0.415,0.217,0.191,north-northwest,1.0,No
2016/01/21,03:40,0.457,0.267,0.479,0.437,0.416,0.218,0.190,west-northwest,1.0,No
2016/01/21,03:50,0.456,0.268,0.479,0.436,0.416,0.219,0.190,west-northwest,1.5,No
2016/01/21,04:00,0.455,0.268,0.481,0.437,0.415,0.219,0.189,west-northwest,1.4,No
2016/01/21,04:10,0.456,0.267,0.480,0.437,0.415,0.218,0.190,-,CALM,No
2016/01/21,04:20,0.454,0.267,0.478,0.435,0.417,0.218,0.190,-,CALM,No
2016/01/21,04:30,0.454,0.267,0.480,0.436,0.416,0.218,0.190,-,CALM,No
2016/01/21,04:40,0.454,0.267,0.479,0.436,0.418,0.219,0.190,-,CALM,No
2016/01/21,04:50,0.456,0.267,0.481,0.437,0.414,0.218,0.190,-,CALM,No
2016/01/21,05:00,0.456,0.265,0.481,0.435,0.415,0.218,0.191,-,CALM,No
2016/01/21,05:10,0.455,0.266,0.480,0.435,0.415,0.219,0.191,southwest,1.0,No
2016/01/21,05:20,0.455,0.268,0.479,0.434,0.415,0.219,0.189,northwest,0.8,No
2016/01/21,05:30,0.454,0.267,0.479,0.436,0.413,0.218,0.190,-,CALM,No
2016/01/21,05:40,0.456,0.267,0.481,0.436,0.416,0.219,0.191,south-southwest,0.6,No
2016/01/21,05:50,0.455,0.269,0.480,0.437,0.415,0.218,0.190,west-southwest,1.8,No
2016/01/21,06:00,0.454,0.268,0.479,0.435,0.415,0.217,0.190,west-southwest,1.6,No
2016/01/21,06:10,0.454,0.268,0.479,0.435,0.416,0.218,0.190,-,CALM,No
2016/01/21,06:20,0.456,0.267,0.480,0.436,0.416,0.219,0.190,west-southwest,1.3,No
2016/01/21,06:30,0.455,0.267,0.480,0.435,0.415,0.219,0.191,west,1.9,No
2016/01/21,06:40,0.455,0.268,0.481,0.435,0.416,0.219,0.191,-,CALM,No
2016/01/21,06:50,0.455,0.267,0.479,0.435,0.416,0.219,0.190,west,1.0,No
2016/01/21,07:00,0.455,0.267,0.478,0.435,0.416,0.218,0.189,west,1.0,No
2016/01/21,07:10,0.456,0.267,0.479,0.435,0.416,0.218,0.191,west-southwest,1.2,No
2016/01/21,07:20,0.456,0.267,0.480,0.434,0.416,0.219,0.190,southwest,0.9,No
2016/01/21,07:30,0.454,0.267,0.480,0.435,0.415,0.218,0.190,south,0.7,No
2016/01/21,07:40,0.455,0.268,0.479,0.435,0.415,0.218,0.190,south,1.6,No
2016/01/21,07:50,0.454,0.267,0.478,0.434,0.416,0.219,0.189,southwest,1.2,No
2016/01/21,08:00,0.455,0.268,0.481,0.434,0.414,0.219,0.190,west,1.0,No
2016/01/21,08:10,0.454,0.266,0.480,0.432,0.414,0.217,0.190,west-southwest,1.0,No
2016/01/21,08:20,0.454,0.266,0.481,0.436,0.414,0.218,0.189,southwest,1.0,No
2016/01/21,08:30,0.455,0.268,0.478,0.433,0.416,0.219,0.190,southwest,0.9,No
2016/01/21,08:40,0.455,0.267,0.480,0.433,0.416,0.218,0.190,south,1.1,No
2016/01/21,08:50,0.454,0.268,0.478,0.436,0.414,0.218,0.191,east-northeast,1.1,No
2016/01/21,09:00,0.453,0.266,0.479,0.435,0.415,0.218,0.190,east-northeast,1.0,No
2016/01/21,09:10,0.454,0.267,0.478,0.434,0.415,0.217,0.190,east,1.6,No
2016/01/21,09:20,0.454,0.266,0.479,0.435,0.417,0.219,0.190,east-northeast,1.1,No
2016/01/21,09:30,0.453,0.268,0.478,0.434,0.416,0.218,0.189,north,1.3,No
2016/01/21,09:40,0.456,0.264,0.479,0.432,0.415,0.219,0.189,-,CALM,No
2016/01/21,09:50,0.456,0.265,0.479,0.436,0.416,0.218,0.190,north-northeast,1.6,No
2016/01/21,10:00,0.452,0.266,0.478,0.435,0.416,0.218,0.190,northeast,1.7,No
2016/01/21,10:10,0.456,0.265,0.479,0.434,0.413,0.218,0.191,northeast,2.4,No
2016/01/21,10:20,0.456,0.266,0.479,0.437,0.416,0.218,0.191,east-northeast,1.8,No
2016/01/21,10:30,0.455,0.267,0.477,0.436,0.417,0.218,0.191,east-northeast,1.9,No
2016/01/21,10:40,0.458,0.269,0.478,0.438,0.413,0.218,0.191,east,2.1,No
2016/01/21,10:50,0.454,0.266,0.480,0.437,0.415,0.218,0.191,east,1.7,No
2016/01/21,11:00,0.455,0.267,0.478,0.435,0.418,0.219,0.190,east-southeast,2.7,No
2016/01/21,11:10,0.455,0.267,0.478,0.436,0.413,0.219,0.190,east,1.7,No
2016/01/21,11:20,0.454,0.265,0.482,0.436,0.415,0.218,0.191,east-southeast,2.9,No
2016/01/21,11:30,0.456,0.266,0.477,0.436,0.416,0.219,0.191,east,2.6,No
2016/01/21,11:40,0.455,0.265,0.479,0.436,0.416,0.219,0.190,east-southeast,1.6,No
2016/01/21,11:50,0.456,0.267,0.478,0.437,0.416,0.218,0.191,east-southeast,2.1,No
2016/01/21,12:00,0.458,0.268,0.478,0.436,0.418,0.219,0.192,east,3.5,No
2016/01/21,12:10,0.456,0.267,0.479,0.438,0.416,0.219,0.191,-,CALM,No
2016/01/21,12:20,0.455,0.267,0.479,0.435,0.420,0.219,0.190,east-southeast,2.3,No
2016/01/21,12:30,0.459,0.268,0.478,0.436,0.415,0.219,0.191,west-northwest,5.8,No
2016/01/21,12:40,0.454,0.266,0.479,0.434,0.417,0.219,0.191,west-northwest,7.0,No
2016/01/21,12:50,0.456,0.267,0.477,0.435,0.415,0.219,0.191,northwest,6.5,No
2016/01/21,13:00,0.457,0.268,0.480,0.436,0.415,0.220,0.190,northwest,9.2,No
2016/01/21,13:10,0.457,0.267,0.475,0.435,0.418,0.219,0.191,west-northwest,10.3,No
2016/01/21,13:20,0.459,0.267,0.479,0.438,0.419,0.219,0.192,northwest,8.6,No
2016/01/21,13:30,0.458,0.267,0.480,0.435,0.418,0.220,0.191,northwest,8.7,No
2016/01/21,13:40,0.456,0.268,0.477,0.438,0.418,0.219,0.191,west-northwest,9.0,No
2016/01/21,13:50,0.460,0.270,0.482,0.437,0.415,0.220,0.191,west-northwest,7.8,No
2016/01/21,14:00,0.457,0.268,0.481,0.438,0.417,0.218,0.191,west-northwest,8.1,No
2016/01/21,14:10,0.457,0.267,0.476,0.441,0.419,0.220,0.192,west-northwest,6.1,No
2016/01/21,14:20,0.460,0.269,0.482,0.438,0.418,0.220,0.192,west-northwest,7.3,No
2016/01/21,14:30,0.456,0.269,0.481,0.438,0.417,0.218,0.191,west,6.8,No
2016/01/21,14:40,0.459,0.267,0.480,0.438,0.418,0.218,0.191,west-northwest,8.9,No
2016/01/21,14:50,0.459,0.268,0.482,0.436,0.418,0.220,0.191,west-northwest,9.8,No
2016/01/21,15:00,0.458,0.269,0.481,0.438,0.419,0.219,0.192,west-northwest,7.9,No
2016/01/21,15:10,0.457,0.268,0.479,0.438,0.417,0.220,0.192,west,8.5,No
2016/01/21,15:20,0.458,0.268,0.483,0.437,0.419,0.219,0.192,west-northwest,7.4,No
2016/01/21,15:30,0.458,0.270,0.481,0.437,0.418,0.219,0.192,west,8.1,No
2016/01/21,15:40,0.458,0.269,0.480,0.438,0.420,0.219,0.192,west-northwest,7.3,No
2016/01/21,15:50,0.460,0.267,0.481,0.437,0.417,0.219,0.192,west,7.3,No
2016/01/21,16:00,0.459,0.269,0.481,0.437,0.416,0.219,0.192,west-northwest,5.8,No
2016/01/21,16:10,0.457,0.269,0.482,0.440,0.417,0.220,0.192,northwest,4.2,No
2016/01/21,16:20,0.457,0.268,0.482,0.435,0.419,0.218,0.190,west-northwest,4.6,No
2016/01/21,16:30,0.460,0.269,0.482,0.439,0.416,0.220,0.192,west-northwest,5.7,No
2016/01/21,16:40,0.459,0.269,0.481,0.438,0.417,0.219,0.191,west-northwest,4.6,No
2016/01/21,16:50,0.458,0.269,0.479,0.437,0.418,0.219,0.191,west-northwest,3.6,No
2016/01/21,17:00,0.458,0.270,0.483,0.437,0.419,0.219,0.191,west-northwest,3.3,No
2016/01/21,17:10,0.457,0.268,0.479,0.438,0.416,0.220,0.191,west-northwest,2.9,No
2016/01/21,17:20,0.458,0.268,0.480,0.439,0.416,0.219,0.191,west-northwest,4.3,No
2016/01/21,17:30,0.456,0.270,0.481,0.437,0.418,0.219,0.192,north-northwest,3.3,No
2016/01/21,17:40,0.458,0.269,0.482,0.437,0.417,0.220,0.191,west-northwest,3.9,No
2016/01/21,17:50,0.457,0.267,0.479,0.439,0.416,0.219,0.193,west-northwest,2.9,No
2016/01/21,18:00,0.458,0.269,0.479,0.437,0.417,0.220,0.192,west-northwest,3.4,No
2016/01/21,18:10,0.456,0.268,0.483,0.435,0.418,0.220,0.191,west,4.3,No
2016/01/21,18:20,0.457,0.269,0.480,0.438,0.418,0.219,0.191,west-northwest,4.6,No
2016/01/21,18:30,0.457,0.269,0.479,0.438,0.416,0.219,0.191,west-northwest,4.1,No
2016/01/21,18:40,0.457,0.269,0.482,0.437,0.417,0.219,0.191,west,4.8,No
2016/01/21,18:50,0.458,0.269,0.481,0.438,0.418,0.220,0.192,west,5.2,No
2016/01/21,19:00,0.459,0.269,0.480,0.440,0.416,0.220,0.191,west-northwest,5.1,No
2016/01/21,19:10,0.457,0.269,0.482,0.438,0.416,0.219,0.192,west,5.0,No
2016/01/21,19:20,0.456,0.269,0.483,0.438,0.417,0.220,0.191,west,5.7,No
2016/01/21,19:30,0.458,0.267,0.481,0.436,0.420,0.219,0.191,west,3.4,No
2016/01/21,19:40,0.456,0.269,0.480,0.436,0.418,0.220,0.191,west-southwest,1.8,No
2016/01/21,19:50,0.457,0.270,0.479,0.437,0.418,0.220,0.191,west-northwest,1.5,No
2016/01/21,20:00,0.457,0.269,0.482,0.437,0.417,0.219,0.191,west,2.7,No
2016/01/21,20:10,0.458,0.268,0.480,0.437,0.417,0.219,0.191,north-northwest,1.6,No
2016/01/21,20:20,0.456,0.267,0.480,0.437,0.417,0.219,0.192,north-northwest,3.2,No
2016/01/21,20:30,0.459,0.269,0.483,0.438,0.417,0.219,0.192,west,2.1,No
2016/01/21,20:40,0.456,0.269,0.481,0.438,0.417,0.219,0.192,southwest,0.8,No
2016/01/21,20:50,0.456,0.268,0.480,0.438,0.418,0.220,0.191,west-northwest,0.8,No
2016/01/21,21:00,0.457,0.268,0.481,0.438,0.418,0.219,0.191,north-northwest,1.9,No
2016/01/21,21:10,0.457,0.268,0.482,0.438,0.415,0.220,0.192,northwest,2.4,No
2016/01/21,21:20,0.459,0.269,0.482,0.438,0.417,0.220,0.191,northwest,1.9,No
2016/01/21,21:30,0.456,0.268,0.480,0.436,0.418,0.218,0.191,north-northwest,2.0,No
2016/01/21,21:40,0.457,0.268,0.481,0.437,0.417,0.220,0.190,northwest,2.2,No
2016/01/21,21:50,0.458,0.269,0.481,0.439,0.417,0.219,0.191,west-northwest,1.0,No
2016/01/21,22:00,0.456,0.267,0.481,0.438,0.416,0.220,0.191,west,1.6,No
2016/01/21,22:10,0.458,0.268,0.482,0.436,0.416,0.218,0.191,west,3.2,No
2016/01/21,22:20,0.458,0.269,0.481,0.437,0.417,0.220,0.192,west,2.1,No
2016/01/21,22:30,0.457,0.269,0.482,0.437,0.417,0.220,0.191,west-southwest,1.7,No
2016/01/21,22:40,0.457,0.269,0.483,0.438,0.415,0.219,0.192,southwest,3.1,No
2016/01/21,22:50,0.456,0.268,0.481,0.438,0.416,0.219,0.192,west-southwest,2.4,No
2016/01/21,23:00,0.457,0.268,0.480,0.436,0.418,0.220,0.191,west-southwest,2.1,No
2016/01/21,23:10,0.456,0.269,0.482,0.439,0.418,0.220,0.191,north-northwest,0.9,No
2016/01/21,23:20,0.458,0.268,0.481,0.437,0.418,0.220,0.191,north,2.5,No
2016/01/21,23:30,0.458,0.268,0.481,0.436,0.416,0.220,0.192,north,1.9,No
2016/01/21,23:40,0.456,0.268,0.479,0.437,0.417,0.220,0.193,north,2.6,No
2016/01/21,23:50,0.456,0.269,0.483,0.438,0.417,0.219,0.192,north-northeast,3.1,No
